Stations météo

réclame
Mon MeteoGroup
Films Kyrkby, Suède (2456): Température de l'air & dewpoint: 01.08.2020 17:00:00 - 07.08.2020 17:00:00 (CEST)Films Kyrkby, Suède (2456): Vitesse du vent & gusts: 01.08.2020 17:00:00 - 07.08.2020 17:00:00 (CEST)Films Kyrkby, Suède (2456): Direction du vent: 01.08.2020 17:00:00 - 07.08.2020 17:00:00 (CEST)Films Kyrkby, Suède (2456): reduced air pressure: 01.08.2020 17:00:00 - 07.08.2020 17:00:00 (CEST)Films Kyrkby, Suède (2456): visibility: 01.08.2020 17:00:00 - 07.08.2020 17:00:00 (CEST)Films Kyrkby, Suède (2456): Quantités de précipitations: 01.08.2020 17:00:00 - 07.08.2020 17:00:00 (CEST)
Date & Time tt [°C] td [°C] ff [km/h] ff [knt] fx [km/h] fx [knt] dd ppp [hPa] vv [km] rr [mm]
07.08.2020 17:00:00 28,7 13,8 8 5 23 13 SSW 1023,9 50 0,0
07.08.2020 16:00:00 29,6 12,5 10 5 24 13 SW 1024,1 38 0,0
07.08.2020 15:00:00 29,3 13,5 10 5 21 11 S 1024,5 41 0,0
07.08.2020 14:00:00 28,7 12,6 10 6 20 11 SSW 1024,9 37 0,0
07.08.2020 13:00:00 27,7 14,3 4 2 16 8 SW 1025,3 47 0,0
07.08.2020 12:00:00 28,0 12,8 6 3 14 8 SSW 1025,6 41 0,0
07.08.2020 11:00:00 26,5 15,2 6 3 13 7 SSW 1025,9 35 0,0
07.08.2020 10:00:00 25,0 16,2 4 2 9 5 S 1025,9 40 0,0
07.08.2020 09:00:00 22,8 16,1 0 0 6 3 N 1026,0 42 0,0
07.08.2020 08:00:00 20,7 16,1 3 1 8 5 S 1026,0 41 0,0
07.08.2020 07:00:00 17,6 16,6 2 1 5 3 SSW 1026,0 43 0,0
07.08.2020 06:00:00 14,0 13,7 0 0 3 2 N 1025,7 5 0,0
07.08.2020 05:00:00 13,9 13,6 0 0 4 2 N 1025,4 0,7 0,0
07.08.2020 04:00:00 14,2 13,9 0 0 4 2 N 1025,1 0,4 0,0
07.08.2020 03:00:00 14,0 13,7 0 0 5 3 N 1024,9 1,3 0,0
07.08.2020 02:00:00 14,6 14,1 0 0 4 2 N 1024,6 6 0,0
07.08.2020 01:00:00 15,0 14,5 0 0 4 2 N 1024,3 21 0,0
07.08.2020 00:00:00 15,4 14,6 3 1 4 2 SSW 1024,0 24 0,0
06.08.2020 23:00:00 16,0 14,9 0 0 4 2 N 1023,7 42 0,0
06.08.2020 22:00:00 17,5 14,9 0 0 9 5 N 1023,3 50 0,0
06.08.2020 21:00:00 19,8 15,4 4 2 14 8 SW 1022,8 50 0,0
06.08.2020 20:00:00 21,2 15,5 6 3 21 11 WSW 1022,3 50 0,0
06.08.2020 19:00:00 22,7 15,8 8 4 19 10 SW 1021,7 50 0,0
06.08.2020 18:00:00 23,1 15,4 8 5 25 13 WSW 1021,4 50 0,0
06.08.2020 17:00:00 23,3 15,4 8 5 26 14 WSW 1021,1 48 0,0
06.08.2020 16:00:00 21,8 14,7 10 5 23 13 WSW 1020,8 50 0,0
06.08.2020 15:00:00 22,7 15,0 8 4 25 13 WSW 1020,3 39 0,0
06.08.2020 14:00:00 22,4 15,3 7 4 18 10 SW 1020,1 45 0,0
06.08.2020 13:00:00 21,1 14,5 8 4 19 11 SW 1019,8 49 0,0
06.08.2020 12:00:00 21,1 15,0 9 5 20 11 WSW 1019,4 45 0,0
06.08.2020 11:00:00 19,6 15,5 5 3 16 9 WSW 1019,0 50 0,0
06.08.2020 10:00:00 18,2 15,3 7 4 20 11 WSW 1018,5 49 0,0
06.08.2020 09:00:00 17,8 15,1 8 4 21 11 SW 1017,9 50 0,0
06.08.2020 08:00:00 17,1 14,7 7 4 16 9 SSW 1017,3 46 0,0
06.08.2020 07:00:00 16,3 14,3 8 4 23 12 SW 1016,7 48 0,0
06.08.2020 06:00:00 16,1 13,9 8 4 16 8 SSW 1016,3 50 0,0
06.08.2020 05:00:00 16,0 13,5 5 3 14 7 SSW 1016,0 25 0,0
06.08.2020 04:00:00 16,0 13,1 6 3 16 9 SW 1015,6 30 0,0
06.08.2020 03:00:00 16,0 11,6 8 5 19 10 SSW 1015,1 44 0,0
06.08.2020 02:00:00 15,8 11,0 6 3 16 9 SSW 1014,7 50 0,0
06.08.2020 01:00:00 16,3 10,4 7 4 16 9 SSW 1014,6 50 0,0
06.08.2020 00:00:00 16,1 10,2 6 4 19 11 S 1014,5 50 0,0
05.08.2020 23:00:00 15,6 9,5 6 4 16 8 S 1014,5 50 0,0
05.08.2020 22:00:00 15,8 9,5 5 3 16 9 SSW 1014,6 50 0,0
05.08.2020 21:00:00 16,0 9,4 6 3 21 11 S 1014,3 50 0,0
05.08.2020 20:00:00 17,1 8,8 10 5 32 17 SSW 1014,0 50 0,0
05.08.2020 19:00:00 17,9 8,5 13 7 35 19 SSW 1013,9 50 0,0
05.08.2020 18:00:00 18,5 8,7 11 6 27 15 SSW 1013,6 50 -
05.08.2020 17:00:00 19,3 7,4 11 6 27 15 SW 1013,2 50 0,0
05.08.2020 16:00:00 19,3 8,0 8 4 26 14 SW 1013,0 50 0,0
05.08.2020 15:00:00 21,0 8,9 10 6 29 16 SSW 1013,0 37 0,0
05.08.2020 14:00:00 19,5 9,1 10 6 27 15 SSW 1013,1 43 0,0
05.08.2020 13:00:00 18,4 8,4 10 5 29 16 SSW 1012,9 48 0,0
05.08.2020 12:00:00 17,4 8,5 12 7 29 16 SSW 1012,8 38 0,0
05.08.2020 11:00:00 17,6 8,2 13 7 28 15 SSW 1012,8 42 0,0
05.08.2020 10:00:00 16,8 8,7 11 6 25 14 SSW 1012,6 35 0,0
05.08.2020 09:00:00 15,5 9,8 7 4 19 11 SSW 1012,5 46 0,0
05.08.2020 08:00:00 13,6 9,8 8 4 18 10 SW 1012,3 37 0,0
05.08.2020 07:00:00 11,6 9,5 6 3 14 7 SW 1012,0 47 0,0
05.08.2020 06:00:00 9,6 9,0 3 1 7 4 SSW 1011,8 48 0,0
05.08.2020 05:00:00 8,4 8,1 0 0 5 3 N 1011,5 50 0,0
05.08.2020 04:00:00 8,8 8,5 0 0 6 4 N 1011,3 50 0,0
05.08.2020 03:00:00 9,4 9,1 0 0 4 2 N 1011,1 19 0,0
05.08.2020 02:00:00 9,5 9,2 2 1 5 3 S 1010,8 1,8 0,0
05.08.2020 01:00:00 9,4 8,9 0 0 4 2 N 1010,6 1,1 0,0
05.08.2020 00:00:00 10,9 10,1 0 0 7 4 N 1010,5 50 0,0
04.08.2020 23:00:00 12,6 11,3 0 0 7 4 N 1010,3 50 0,0
04.08.2020 22:00:00 13,9 11,4 0 0 10 6 N 1010,0 50 0,0
04.08.2020 21:00:00 15,2 11,6 6 3 16 9 ESE 1009,9 50 0,0
04.08.2020 20:00:00 17,5 11,7 10 6 18 10 ESE 1009,7 50 0,0
04.08.2020 19:00:00 20,9 5,7 5 3 10 5 W 1009,2 50 0,0
04.08.2020 18:00:00 21,3 6,0 3 2 12 7 NW 1009,0 49 0,0
04.08.2020 17:00:00 21,4 6,1 5 3 15 8 SW 1009,0 45 0,0
04.08.2020 16:00:00 20,6 7,9 5 3 16 9 NW 1009,2 37 0,0
04.08.2020 15:00:00 20,2 8,5 3 2 14 8 WNW 1009,2 46 0,0
04.08.2020 14:00:00 19,7 8,4 8 4 17 9 WNW 1009,1 48 0,0
04.08.2020 13:00:00 18,4 9,5 5 3 16 9 WNW 1008,9 50 0,0
04.08.2020 12:00:00 17,9 9,0 8 4 16 9 W 1008,7 46 0,0
04.08.2020 11:00:00 18,2 9,8 7 4 15 8 W 1008,6 41 0,0
04.08.2020 10:00:00 16,5 10,8 5 3 12 7 WSW 1008,6 50 0,0
04.08.2020 09:00:00 15,6 10,1 4 2 11 6 WNW 1008,3 49 0,0
04.08.2020 08:00:00 14,0 10,0 3 2 7 4 W 1008,1 50 0,0
04.08.2020 07:00:00 11,8 9,7 4 2 6 3 SW 1007,8 50 0,0
04.08.2020 06:00:00 9,3 8,8 0 0 4 2 N 1007,5 50 0,0
04.08.2020 05:00:00 8,5 8,1 2 1 4 2 SSW 1007,4 41 0,0
04.08.2020 04:00:00 9,2 8,3 0 0 7 4 N 1007,3 50 0,0
04.08.2020 03:00:00 10,4 8,5 3 1 7 4 SW 1007,2 50 0,0
04.08.2020 02:00:00 10,4 8,8 0 0 6 4 N 1006,8 50 0,0
04.08.2020 01:00:00 11,4 9,5 3 2 6 3 S 1006,5 50 0,0
04.08.2020 00:00:00 12,6 9,4 3 1 12 7 SW 1005,9 50 0,0
03.08.2020 23:00:00 12,9 9,9 3 1 6 3 S 1005,7 50 0,0
03.08.2020 22:00:00 13,4 10,4 2 1 5 3 SSW 1005,5 50 0,0
03.08.2020 21:00:00 16,0 9,4 0 0 13 7 N 1005,2 50 0,0
03.08.2020 20:00:00 19,2 9,4 4 2 22 12 WSW 1004,8 50 0,0
03.08.2020 19:00:00 20,4 9,3 7 4 29 16 W 1004,4 50 0,0
03.08.2020 18:00:00 20,3 9,8 7 4 25 14 SW 1004,1 50 0,0
03.08.2020 17:00:00 21,2 10,1 13 7 30 16 SW 1004,2 42 0,0
03.08.2020 16:00:00 21,2 10,4 10 5 29 16 SW 1004,2 40 0,0
03.08.2020 15:00:00 21,4 10,5 12 7 29 16 WSW 1004,4 38 0,0
03.08.2020 14:00:00 20,2 10,9 8 4 26 14 SW 1004,2 42 0,0
03.08.2020 13:00:00 20,3 10,1 13 7 29 16 SSW 1004,2 31 0,0
03.08.2020 12:00:00 18,7 10,3 11 6 26 14 WSW 1004,2 37 0,0
03.08.2020 11:00:00 18,4 10,2 11 6 29 15 WSW 1004,1 30 0,0
03.08.2020 10:00:00 17,3 11,3 11 6 25 14 SW 1004,3 28 0,0
03.08.2020 09:00:00 14,8 11,2 10 6 28 15 WSW 1004,4 38 0,0
03.08.2020 08:00:00 14,9 11,1 10 6 25 14 SW 1004,4 32 0,0
03.08.2020 07:00:00 14,3 11,8 5 3 19 11 SW 1004,1 35 0,0
03.08.2020 06:00:00 13,6 12,0 7 4 17 9 SW 1004,2 36 0,0
03.08.2020 05:00:00 12,9 12,0 5 3 14 8 SW 1004,2 42 0,0
03.08.2020 04:00:00 13,7 12,3 8 4 19 10 SW 1004,3 47 0,0
03.08.2020 03:00:00 15,0 12,7 6 4 24 13 SW 1004,5 50 0,0
03.08.2020 02:00:00 16,6 13,9 7 4 22 12 SW 1004,5 50 0,0
03.08.2020 01:00:00 17,4 15,0 6 4 18 10 WSW 1004,4 47 0,0
03.08.2020 00:00:00 17,1 14,4 4 2 12 6 SSW 1004,5 50 0,0
02.08.2020 23:00:00 17,9 13,8 4 2 11 6 S 1004,6 15 0,0
02.08.2020 22:00:00 18,6 14,1 4 2 14 8 S 1004,8 45 0,0
02.08.2020 21:00:00 19,6 13,8 4 2 11 6 S 1004,9 50 0,0
02.08.2020 20:00:00 20,5 13,7 5 3 18 10 S 1005,1 50 0,0
02.08.2020 19:00:00 21,7 11,7 6 3 14 7 S 1005,4 50 0,0
02.08.2020 18:00:00 21,9 10,7 4 2 14 8 S 1005,7 50 0,0
02.08.2020 17:00:00 22,5 11,9 5 3 22 12 SSW 1006,2 50 0,0
02.08.2020 16:00:00 23,9 13,4 10 5 24 13 S 1006,7 45 0,0
02.08.2020 15:00:00 25,6 12,8 13 7 25 14 SSW 1007,0 44 0,0
02.08.2020 14:00:00 25,0 14,8 4 2 16 8 WSW 1007,3 48 0,0
02.08.2020 13:00:00 24,6 15,5 8 4 22 12 S 1007,9 40 0,0
02.08.2020 12:00:00 22,7 15,0 6 3 17 9 SSW 1008,4 44 0,0
02.08.2020 11:00:00 21,3 14,9 7 4 14 7 SSW 1009,0 47 0,0
02.08.2020 10:00:00 21,5 14,6 6 4 13 7 S 1009,1 42 0,0
02.08.2020 09:00:00 19,5 13,7 5 3 13 7 SSW 1009,5 38 0,0
02.08.2020 08:00:00 17,5 13,2 5 3 13 7 S 1010,1 49 0,0
02.08.2020 07:00:00 18,0 13,5 6 3 11 6 SW 1010,4 40 0,0
02.08.2020 06:00:00 13,9 12,1 2 1 6 4 SSW 1010,9 50 0,0
02.08.2020 05:00:00 14,0 11,9 3 1 6 3 SSW 1011,2 50 0,0
02.08.2020 04:00:00 14,8 12,1 3 1 6 3 SW 1011,8 50 0,0
02.08.2020 03:00:00 14,8 12,1 2 1 8 4 S 1012,1 50 0,0
02.08.2020 02:00:00 15,4 12,2 4 2 9 5 SSW 1012,6 50 0,0
02.08.2020 01:00:00 15,4 12,3 3 2 8 4 S 1013,2 50 0,0
02.08.2020 00:00:00 16,1 12,5 4 2 10 5 S 1013,5 50 0,0
01.08.2020 23:00:00 17,3 12,2 6 3 10 6 S 1013,7 50 0,0
01.08.2020 22:00:00 18,7 12,2 4 2 14 7 SSE 1014,0 50 0,0
01.08.2020 21:00:00 20,0 12,2 5 3 13 7 SSE 1014,1 50 0,0
01.08.2020 20:00:00 20,6 12,6 6 4 11 6 ESE 1014,5 50 0,0
01.08.2020 19:00:00 21,9 11,6 7 4 14 7 E 1014,9 50 0,0
01.08.2020 18:00:00 24,0 11,3 4 2 7 4 SSW 1015,2 50 0,0
01.08.2020 17:00:00 25,0 11,2 5 3 16 8 S 1015,5 44 0,0

tt = Température de l'air
td = dewpoint
ff = Vitesse du vent
fx = gusts
dd = Direction du vent
ppp = reduced air pressure
vv = visibility
rr = Quantités de précipitations

stations d'obs. à proximité